ROMMA est une association bénévole à but non lucratif. Votre soutien est indispensable : ADHERER à ROMMA ou FAIRE un DON

Chambon - (38, Isère)

Oisans (2460 m)   Longitude: 06° 10' 42" E   Latitude: 45° 01' 32" N Station partenaire n°803
 

Détail journalier du     <<     >>

Température Humidité Vent Dir Rafale Dir. rafale Neige 1 Neige 2
Heure (°C) (%) (km/h) (km/h) (cm) (cm)
01:00 -3.61003N9N187240
02:00 -2.81005NNE12SO187240
03:00 -2.81008SSO14SSO187240
04:00 -2.69910SSO16SO187240
05:00 -1.9976NNE20ENE187240
06:00 -2.9956NNE17SO187240
07:00 -3.4955SSO16SSO187240
08:00 -3.1929N19NE187240
09:00 -1.1856N17N186240
10:00 2.3289N19NNE186240
11:00 3.8186NNE18NNE186239
12:00 5.6152E17E185239
13:00 7.4162SO8SO185239
14:00 5.9166SSO14SSO185239
15:00 6.1139S18S185239
16:00 6.887SSE20SSE185239
17:00 6.666E19E185239
18:00 5.477E18E185239
19:00 4.976SSE19SSE185239
20:00 4.51014SSE33S185239
21:00 4.21119S33S185239
22:00 4.31324SSO46SSO185239
23:00 5.11232SSO57SO184239
minuit 4.01638SO60SO184239

Graphique du 16-03-2019

 

Serveur OMMA